Lima, OH

7:28 PM EST on December 09, 2016 (GMT -0500)
Lima Allen County

Weather History for KAOH - March, 2013

Change the Weather History Date:

Saturday, March 16, 2013

  Actual Average (KFDY) Record (KFDY)
Temperature  
Mean Temperature 36 °F -  
Max Temperature 42 °F 44 °F 73 °F (2012)
Min Temperature 30 °F 28 °F 14 °F (1970)
Degree Days  
Heating Degree Days 29    
Moisture  
Dew Point 33 °F    
Average Humidity 89    
Maximum Humidity 100    
Minimum Humidity 80    
Precipitation  
Precipitation 0.01 in - - ()
Sea Level Pressure  
Sea Level Pressure 29.81 in    
Wind  
Wind Speed 8 mph (NNE)    
Max Wind Speed 17 mph    
Max Gust Speed 22 mph    
Visibility 4 miles    
Events Fog , Rain    
Averages and records for this station are not official NWS values.
T = Trace of Precipitation, MM = Missing Value Source: NWS Daily Summary

Daily Weather History Graph

Daily Weather History Graph

Search for Another Location

Airport or City:

Trip Planner

Search our weather history database for the weather conditions in past years. The results will help you decide how hot, cold, wet, or windy it might be!

Date:

Astronomy

Mar. 16, 2013 Rise Set
Actual Time 7:45 AM EDT 7:44 PM EDT
Civil Twilight 7:18 AM EDT 8:11 PM EDT
Nautical Twilight 6:46 AM EDT 8:43 PM EDT
Astronomical Twilight 6:14 AM EDT 9:15 PM EDT
Moon 10:13 AM EDT (3/16) No Moon Set
Length of Visible Light 12h 53m
Length of Day
11h 58m
Waxing Crescent, 23% of the Moon is Illuminated
Mar 16
Waxing Crescent
Mar 19
First Quarter
Mar 27
Full
Apr 3
Last Quarter
Apr 10
New

Hourly Weather History & Observations

Time (EDT) Temp. Windchill Dew Point Humidity Pressure Visibility Wind Dir Wind Speed Gust Speed Precip Events Conditions
12:09 AM 41.0 °F 35.2 °F 39.2 °F 93% 29.78 in 2.5 mi South 9.2 mph - 0.00 in   Overcast
12:30 AM 42.8 °F 38.0 °F 39.2 °F 87% 29.78 in 3.0 mi South 8.1 mph - 0.00 in   Overcast
12:53 AM 42.1 °F 36.6 °F 39.0 °F 89% 29.79 in 3.0 mi South 9.2 mph - 0.00 in Rain Light Rain
1:53 AM 41.0 °F 39.0 °F 37.9 °F 89% 29.75 in 3.0 mi ENE 3.5 mph - 0.00 in   Overcast
2:02 AM 39.2 °F 35.9 °F 37.4 °F 93% 29.72 in 2.5 mi NE 4.6 mph - N/A   Mostly Cloudy
2:41 AM 39.2 °F 35.0 °F 37.4 °F 93% 29.71 in 1.5 mi East 5.8 mph - N/A   Overcast
2:53 AM 41.0 °F 37.1 °F 37.9 °F 89% 29.71 in 2.0 mi East 5.8 mph - N/A   Overcast
3:10 AM 41.0 °F 38.0 °F 37.4 °F 87% 29.69 in 3.0 mi ESE 4.6 mph - 0.00 in   Overcast
3:53 AM 42.1 °F 38.4 °F 39.0 °F 89% 29.69 in 4.0 mi ESE 5.8 mph - 0.00 in   Overcast
4:53 AM 42.1 °F 37.7 °F 39.0 °F 89% 29.67 in 4.0 mi East 6.9 mph - N/A   Overcast
5:49 AM 41.0 °F 37.1 °F 37.4 °F 87% 29.66 in 2.0 mi NE 5.8 mph - N/A   Overcast
5:53 AM 41.0 °F 37.1 °F 37.9 °F 89% 29.68 in 2.0 mi ENE 5.8 mph - N/A   Overcast
6:02 AM 41.0 °F 37.1 °F 37.4 °F 87% 29.66 in 1.8 mi NE 5.8 mph - N/A   Overcast
6:09 AM 41.0 °F 35.8 °F 37.4 °F 87% 29.66 in 1.5 mi ENE 8.1 mph - N/A   Overcast
6:53 AM 41.0 °F 35.8 °F 37.9 °F 89% 29.66 in 1.0 mi ENE 8.1 mph - N/A   Overcast
7:16 AM 41.0 °F 35.2 °F 37.4 °F 87% 29.63 in 0.8 mi East 9.2 mph - N/A   Overcast
7:31 AM 39.2 °F 33.0 °F 37.4 °F 93% 29.63 in 1.2 mi ENE 9.2 mph - N/A   Overcast
7:53 AM 39.9 °F 35.1 °F 37.9 °F 93% 29.65 in 0.5 mi NE 6.9 mph - N/A Fog Fog
8:05 AM 39.2 °F 34.2 °F 37.4 °F 93% 29.65 in 0.2 mi NNE 6.9 mph - N/A Fog Fog
8:53 AM 37.0 °F 29.8 °F 36.0 °F 96% 29.68 in 0.2 mi NNE 10.4 mph - 0.01 in Fog Fog
9:53 AM 37.0 °F 31.0 °F 36.0 °F 96% 29.68 in 0.2 mi NNE 8.1 mph - N/A Fog Fog
10:53 AM 37.0 °F 28.9 °F 36.0 °F 96% 29.68 in 0.2 mi North 12.7 mph - N/A Fog Fog
11:53 AM 37.0 °F 31.0 °F 36.0 °F 96% 29.71 in 0.5 mi North 8.1 mph - N/A Fog Fog
12:24 PM 37.4 °F 29.8 °F 35.6 °F 93% 29.72 in 0.8 mi North 11.5 mph - N/A   Overcast
12:31 PM 35.6 °F 28.6 °F 35.6 °F 100% 29.73 in 0.5 mi North 9.2 mph - N/A Fog Fog
12:53 PM 35.1 °F 26.4 °F 33.1 °F 92% 29.76 in 0.5 mi NNW 12.7 mph - N/A Fog Fog
1:02 PM 35.6 °F 28.0 °F 33.8 °F 93% 29.75 in 1.0 mi NNW 10.4 mph - N/A   Overcast
1:42 PM 33.8 °F 25.3 °F 32.0 °F 93% 29.78 in 0.8 mi North 11.5 mph 20.7 mph N/A   Overcast
1:50 PM 33.8 °F 23.2 °F 32.0 °F 93% 29.79 in 1.0 mi North 17.3 mph 21.9 mph N/A   Overcast
1:53 PM 34.0 °F 23.8 °F 32.0 °F 92% 29.81 in 1.0 mi North 16.1 mph - N/A   Overcast
2:53 PM 33.1 °F 23.9 °F 30.9 °F 92% 29.85 in 2.0 mi North 12.7 mph - N/A   Overcast
3:06 PM 33.8 °F 23.9 °F 30.2 °F 87% 29.84 in 3.0 mi North 15.0 mph - N/A   Overcast
3:53 PM 32.0 °F 22.5 °F 28.9 °F 88% 29.88 in 7.0 mi North 12.7 mph - N/A   Overcast
4:53 PM 32.0 °F 23.6 °F 28.9 °F 88% 29.91 in 6.0 mi North 10.4 mph - N/A   Overcast
5:27 PM 32.0 °F 23.6 °F 28.4 °F 87% 29.91 in 4.0 mi North 10.4 mph - N/A   Overcast
5:53 PM 30.9 °F 24.3 °F 28.9 °F 92% 29.95 in 5.0 mi NNW 6.9 mph - N/A   Overcast
6:23 PM 32.0 °F 24.8 °F 28.4 °F 87% 29.94 in 7.0 mi NNW 8.1 mph - N/A   Overcast
6:53 PM 32.0 °F 25.6 °F 28.0 °F 85% 29.97 in 7.0 mi North 6.9 mph - N/A   Overcast
7:53 PM 32.0 °F 26.4 °F 27.0 °F 82% 29.99 in 9.0 mi North 5.8 mph - N/A   Overcast
8:41 PM 32.0 °F 26.4 °F 26.6 °F 80% 29.98 in 10.0 mi North 5.8 mph - N/A   Overcast
8:53 PM 32.0 °F 27.5 °F 27.0 °F 82% 30.01 in 10.0 mi North 4.6 mph - N/A   Overcast
9:53 PM 32.0 °F 26.4 °F 27.0 °F 82% 30.02 in 10.0 mi North 5.8 mph - N/A   Overcast
10:12 PM 32.0 °F 26.4 °F 26.6 °F 80% 29.99 in 10.0 mi North 5.8 mph - N/A   Overcast
10:29 PM 32.0 °F 28.7 °F 26.6 °F 80% 30.01 in 10.0 mi North 3.5 mph - N/A   Overcast
10:53 PM 32.0 °F 28.7 °F 27.0 °F 82% 30.04 in 10.0 mi NNW 3.5 mph - N/A   Overcast
11:00 PM 32.0 °F 27.5 °F 26.6 °F 80% 30.02 in 10.0 mi NNW 4.6 mph - N/A   Overcast
11:19 PM 32.0 °F 28.7 °F 26.6 °F 80% 30.03 in 10.0 mi NNW 3.5 mph - N/A   Overcast
11:37 PM 32.0 °F - 26.6 °F 80% 30.03 in 10.0 mi Calm Calm - N/A   Overcast
11:53 PM 32.0 °F 28.7 °F 27.0 °F 82% 30.06 in 10.0 mi NW 3.5 mph - N/A   Overcast